| time (UTC) | temp F | wind direction | speed knots | gust knots | rain 1hr in | rain 24hr in | rain mn in | humidity % | barometer mb |
| 20260507173721 | 52 | 321 | 0.9 | 3.5 | 0.00 | 0.00 | 0.00 | 39 | 1019.9 |
| 20260507172718 | 52 | 358 | 0.9 | 5.2 | 0.00 | 0.00 | 0.00 | 38 | 1020.0 |
| 20260507171716 | 51 | 8 | 0.9 | 5.2 | 0.00 | 0.00 | 0.00 | 41 | 1020.2 |
| 20260507170653 | 50 | 331 | 0.9 | 4.3 | 0.00 | 0.00 | 0.00 | 41 | 1020.4 |
| 20260507165659 | 50 | 9 | 1.7 | 4.3 | 0.00 | 0.00 | 0.00 | 42 | 1020.4 |
| 20260507164649 | 50 | 351 | 2.6 | 6.1 | 0.00 | 0.00 | 0.00 | 42 | 1020.7 |
| 20260507163649 | 50 | 27 | 1.7 | 6.1 | 0.00 | 0.00 | 0.00 | 43 | 1020.9 |
| 20260507162637 | 49 | 353 | 1.7 | 6.1 | 0.00 | 0.00 | 0.00 | 44 | 1021.1 |
| 20260507160510 | 46 | 40 | 0.0 | 3.5 | 0.00 | 0.00 | 0.00 | 44 | 1021.4 |
| 20260507155514 | 45 | 293 | 0.0 | 3.5 | 0.00 | 0.00 | 0.00 | 44 | 1021.8 |
| 20260507154529 | 44 | 33 | 0.0 | 2.6 | 0.00 | 0.00 | 0.00 | 48 | 1022.1 |
| 20260507153544 | 44 | 13 | 0.9 | 3.5 | 0.00 | 0.00 | 0.00 | 48 | 1022.5 |
| 20260507152600 | 44 | 355 | 0.0 | 1.7 | 0.00 | 0.00 | 0.00 | 49 | 1022.8 |
| 20260507151623 | 43 | 163 | 0.0 | 1.7 | 0.00 | 0.00 | 0.00 | 51 | 1023.0 |
| 20260507150554 | 41 | 121 | 0.0 | 0.0 | 0.00 | 0.00 | 0.00 | 55 | 1023.5 |
| 20260507144349 | 40 | 346 | 0.0 | 0.0 | 0.00 | 0.00 | 0.00 | 59 | 1023.7 |
| 20260507143319 | 38 | 88 | 0.0 | 0.0 | 0.00 | 0.00 | 0.00 | 64 | 1023.8 |
| 20260507142249 | 38 | 124 | 0.0 | 0.0 | 0.00 | 0.01 | 0.00 | 66 | 1023.8 |
| 20260507141309 | 36 | 134 | 0.0 | 0.0 | 0.00 | 0.02 | 0.00 | 68 | 1023.9 |
| 20260507135108 | 34 | 345 | 0.0 | 0.0 | 0.00 | 0.02 | 0.00 | 72 | 1023.8 |
| 20260507134038 | 34 | 354 | 0.0 | 0.0 | 0.00 | 0.02 | 0.00 | 74 | 1023.8 |
| 20260507133054 | 33 | 120 | 0.0 | 0.0 | 0.00 | 0.02 | 0.00 | 78 | 1023.6 |
| 20260507132042 | 31 | 120 | 0.0 | 0.0 | 0.00 | 0.02 | 0.00 | 87 | 1023.5 |
| 20260507131007 | 28 | 120 | 0.0 | 0.0 | 0.00 | 0.02 | 0.00 | 91 | 1023.0 |
| 20260507130008 | 27 | 131 | 0.0 | 0.0 | 0.00 | 0.02 | 0.00 | 93 | 1022.8 |
| 20260507080708 | 27 | 134 | 0.0 | 0.0 | 0.00 | 0.02 | 0.00 | 88 | 1022.8 |
| 20260507075657 | 28 | 134 | 0.0 | 0.0 | 0.00 | 0.02 | 0.00 | 86 | 1022.8 |
| 20260507074656 | 28 | 134 | 0.0 | 0.0 | 0.00 | 0.02 | 0.00 | 85 | 1022.8 |
| 20260507072453 | 29 | 134 | 0.0 | 0.0 | 0.00 | 0.02 | 0.00 | 83 | 1022.8 |
| 20260507071505 | 29 | 131 | 0.0 | 0.0 | 0.00 | 0.02 | 0.00 | 85 | 1022.6 |
| 20260507070450 | 29 | 61 | 0.0 | 0.0 | 0.00 | 0.02 | 0.00 | 87 | 1022.5 |
| 20260507064313 | 30 | 319 | 0.0 | 0.0 | 0.00 | 0.02 | 0.00 | 84 | 1022.5 |
| 20260507062207 | 32 | 319 | 0.0 | 0.0 | 0.00 | 0.02 | 0.00 | 77 | 1022.2 |
| 20260507055021 | 31 | 39 | 0.0 | 0.0 | 0.00 | 0.02 | 0.02 | 81 | 1021.7 |
| 20260507053945 | 31 | 294 | 0.0 | 0.0 | 0.00 | 0.02 | 0.02 | 83 | 1021.4 |
| 20260507052951 | 31 | 294 | 0.0 | 0.0 | 0.00 | 0.02 | 0.02 | 80 | 1021.3 |
| 20260507050923 | 32 | 294 | 0.0 | 0.0 | 0.00 | 0.02 | 0.02 | 78 | 1021.5 |
| 20260507045859 | 32 | 308 | 0.0 | 0.0 | 0.00 | 0.02 | 0.02 | 77 | 1021.2 |
| 20260507044834 | 33 | 307 | 0.0 | 0.0 | 0.00 | 0.02 | 0.02 | 75 | 1021.2 |
| 20260507042727 | 34 | 240 | 0.0 | 0.0 | 0.00 | 0.02 | 0.02 | 74 | 1020.9 |
| 20260507041722 | 35 | 240 | 0.0 | 0.0 | 0.00 | 0.02 | 0.02 | 71 | 1020.6 |
| 20260507040730 | 36 | 328 | 0.0 | 0.0 | 0.00 | 0.02 | 0.02 | 70 | 1020.5 |
| 20260507035718 | 36 | 122 | 0.0 | 1.7 | 0.00 | 0.02 | 0.02 | 71 | 1020.2 |
| 20260507034717 | 36 | 192 | 0.0 | 0.9 | 0.00 | 0.02 | 0.02 | 69 | 1020.0 |
| 20260507033710 | 37 | 121 | 0.0 | 1.7 | 0.00 | 0.02 | 0.02 | 68 | 1019.8 |
| 20260507032701 | 37 | 145 | 0.0 | 2.6 | 0.00 | 0.02 | 0.02 | 66 | 1019.4 |
| 20260507031705 | 37 | 164 | 0.0 | 1.7 | 0.00 | 0.02 | 0.02 | 67 | 1018.9 |
| 20260507030713 | 38 | 145 | 0.0 | 0.0 | 0.00 | 0.02 | 0.02 | 65 | 1018.7 |
| 20260507024531 | 41 | 212 | 0.0 | 0.0 | 0.00 | 0.02 | 0.02 | 55 | 1018.1 |
| 20260507023533 | 42 | 213 | 0.0 | 0.0 | 0.00 | 0.02 | 0.02 | 50 | 1018.0 |
| 20260507022523 | 44 | 252 | 0.0 | 0.0 | 0.00 | 0.02 | 0.02 | 46 | 1017.6 |
| 20260507021539 | 45 | 243 | 0.0 | 1.7 | 0.00 | 0.02 | 0.02 | 42 | 1017.4 |
| 20260507020527 | 46 | 290 | 0.0 | 4.3 | 0.00 | 0.02 | 0.02 | 39 | 1017.1 |
| 20260507015454 | 47 | 342 | 0.0 | 2.6 | 0.00 | 0.02 | 0.02 | 37 | 1016.9 |
| 20260507014451 | 48 | 340 | 0.0 | 4.3 | 0.00 | 0.02 | 0.02 | 35 | 1016.8 |
| 20260507013453 | 50 | 278 | 0.9 | 4.3 | 0.00 | 0.02 | 0.02 | 32 | 1016.5 |
| 20260507012450 | 51 | 24 | 0.0 | 3.5 | 0.00 | 0.02 | 0.02 | 30 | 1016.4 |
| 20260507011448 | 51 | 325 | 0.9 | 7.0 | 0.00 | 0.02 | 0.02 | 30 | 1016.3 |
| 20260507010431 | 51 | 4 | 1.7 | 7.0 | 0.00 | 0.02 | 0.02 | 30 | 1016.0 |
| 20260507005450 | 52 | 9 | 0.9 | 6.1 | 0.00 | 0.02 | 0.02 | 31 | 1015.8 |
| 20260507004446 | 52 | 25 | 1.7 | 7.8 | 0.00 | 0.02 | 0.02 | 30 | 1015.7 |
| 20260507003429 | 52 | 302 | 1.7 | 7.8 | 0.00 | 0.02 | 0.02 | 30 | 1015.5 |
| 20260507001353 | 52 | 4 | 2.6 | 12.2 | 0.00 | 0.02 | 0.02 | 31 | 1015.2 |
| 20260507000343 | 52 | 16 | 3.5 | 12.2 | 0.00 | 0.02 | 0.02 | 31 | 1015.2 |
| 20260506235311 | 53 | 14 | 1.7 | 9.6 | 0.00 | 0.02 | 0.02 | 32 | 1015.0 |
| 20260506234314 | 53 | 359 | 4.3 | 9.6 | 0.00 | 0.02 | 0.02 | 31 | 1014.9 |
| 20260506233324 | 54 | 25 | 1.7 | 8.7 | 0.00 | 0.02 | 0.02 | 30 | 1014.6 |
| 20260506232337 | 53 | 304 | 2.6 | 8.7 | 0.00 | 0.02 | 0.02 | 31 | 1014.5 |
| 20260506231317 | 53 | 341 | 2.6 | 9.6 | 0.00 | 0.02 | 0.02 | 32 | 1014.3 |
| 20260506230332 | 54 | 274 | 2.6 | 9.6 | 0.00 | 0.02 | 0.02 | 31 | 1014.2 |
| 20260506225305 | 53 | 354 | 2.6 | 7.8 | 0.00 | 0.02 | 0.02 | 31 | 1013.9 |
| 20260506224233 | 54 | 328 | 1.7 | 12.2 | 0.00 | 0.03 | 0.02 | 32 | 1013.9 |
| 20260506223213 | 52 | 21 | 4.3 | 12.2 | 0.00 | 0.03 | 0.02 | 32 | 1013.8 |
| 20260506221119 | 52 | 324 | 0.9 | 5.2 | 0.00 | 0.03 | 0.02 | 32 | 1013.9 |
| 20260506220052 | 52 | 304 | 2.6 | 7.0 | 0.00 | 0.03 | 0.02 | 32 | 1013.7 |
| 20260506215036 | 51 | 353 | 0.0 | 4.3 | 0.00 | 0.03 | 0.02 | 34 | 1013.7 |
| 20260506214045 | 51 | 306 | 0.0 | 2.6 | 0.00 | 0.03 | 0.02 | 39 | 1013.7 |
| 20260506211853 | 51 | 240 | 0.0 | 7.0 | 0.00 | 0.03 | 0.02 | 37 | 1013.8 |
| 20260506210856 | 51 | 266 | 0.9 | 7.0 | 0.00 | 0.03 | 0.02 | 36 | 1013.8 |
| 20260506205848 | 52 | 309 | 0.9 | 3.5 | 0.00 | 0.03 | 0.02 | 39 | 1013.7 |
| 20260506204910 | 52 | 101 | 0.0 | 6.1 | 0.00 | 0.03 | 0.02 | 44 | 1013.6 |
| 20260506203901 | 48 | 169 | 1.7 | 6.1 | 0.00 | 0.03 | 0.02 | 48 | 1013.6 |
| 20260506201739 | 46 | 297 | 0.9 | 3.5 | 0.00 | 0.03 | 0.02 | 54 | 1013.5 |
| 20260506200721 | 46 | 250 | 0.0 | 4.3 | 0.00 | 0.03 | 0.02 | 56 | 1013.5 |
| 20260506195704 | 46 | 100 | 0.0 | 4.3 | 0.00 | 0.03 | 0.02 | 60 | 1013.3 |
| 20260506194637 | 45 | 44 | 1.7 | 6.1 | 0.00 | 0.03 | 0.02 | 62 | 1013.2 |
| 20260506193648 | 44 | 120 | 0.9 | 6.1 | 0.00 | 0.03 | 0.02 | 64 | 1013.3 |
| 20260506192712 | 43 | 50 | 0.9 | 6.1 | 0.00 | 0.03 | 0.02 | 65 | 1013.3 |
| 20260506191734 | 44 | 190 | 1.7 | 6.1 | 0.00 | 0.03 | 0.02 | 63 | 1013.2 |
| 20260506190722 | 46 | 315 | 1.7 | 7.8 | 0.00 | 0.03 | 0.02 | 62 | 1012.8 |
| 20260506184628 | 49 | 351 | 2.6 | 7.0 | 0.00 | 0.03 | 0.02 | 47 | 1012.6 |
| 20260506183602 | 50 | 16 | 1.7 | 6.1 | 0.00 | 0.03 | 0.02 | 49 | 1012.3 |
| 20260506182618 | 49 | 319 | 2.6 | 10.4 | 0.00 | 0.03 | 0.02 | 50 | 1012.2 |
| 20260506181604 | 48 | 37 | 2.6 | 10.4 | 0.00 | 0.03 | 0.02 | 52 | 1012.1 |
| 20260506180531 | 46 | 33 | 3.5 | 9.6 | 0.00 | 0.03 | 0.02 | 54 | 1012.0 |
| 20260506175533 | 45 | 353 | 2.6 | 8.7 | 0.00 | 0.03 | 0.02 | 57 | 1012.0 |